STARLINK-33794, 63820

Orbit data source: Space-Track

STARLINK-33794, 63820 is a payload satellite owned by SpaceX/Seattle (US) in LEO that was launched on Sun, 04 May 2025 UTC via an FALCON 9 launch vehicle from the Air Force Eastern Test Range (AFETR). Payload-class satellites include a variety of spacecraft equipped with specific instruments for various scientific and technological missions. These include communications satellites like Starlink; space stations such as the ISS; scientific satellites like the Hubble; Earth observation satellites from companies like Planet Labs, Umbra, and HawkEye 360; GPS; miniature CubeSats for education and research; and military/defense satellites.

Loading next visibility...
Identifier
63820, 2025-092S
Orbit
LEO
Country
Flag of USUS
Related business
Manufacturer
SpaceX/Seattle
Mission
Operational Commercial Communications
Bus & Motor
STARLINK V2MO, Unknown motor
Mass
575 kg wet, ~530 kg dry
Launch date (UTC)
2025-05-04 (1 year ago)
Launch vehicle
FALCON 9
Launch site
Air Force Eastern Test Range (AFETR)
Object type
Payload
Rocket body
Debris
Shape & HBR
Box + 1 Pan, 17.7 m
Radar Cross Section
41.120 m², Large (>1 m²)

Expand to show TLE details & history
Last TLE update: 19 hours ago

TLE from 19 hours ago
0 STARLINK-33794
1 63820U 25092S   26267.01417517  .00014454  00000-0  53356-3 0  9999
2 63820  43.0034 132.7002 0000944 266.8931  93.1812 15.27590770 78947
Epoch: 2026-09-24T00:20Z
TLE epoch observation values (Epoch: 2026-09-24T00:20:24.734Z)
Latitude
-0.00007°
Longitude
124.74003°
Altitude
482.829 km
Speed
7.626 km/s
True Right ascension
08h 50m 48s
True Declination
0° 00' 00"
Sunlit
Object was in daylight at epoch
Visualization orbit readout
Latitude
Unknown
Longitude
Unknown
Altitude
Unknown
Speed
Unknown
Apparent Right ascension
Unknown
Apparent Declination
Unknown
Sunlit
N/A
Visualization observer readout
Local Sidereal Time
13:04:29
Azimuth
Unknown
Elevation
Unknown
Doppler factor
Unknown
Orbital elements
Apogee altitude
485.609 km
Perigee altitude
484.314 km
Semi-major axis
6,863.098 km
Eccentricity
0.00009
Inclination
43.0034°
RAAN
132.7002°
Arg. of periapsis
266.8931°
True anomaly
93.192°
Mean anomaly
93.1812°
Eccentric anomaly
93.1866°
Mean motion
3.81736 °/min
Orbital period
94.31 mins
BSTAR
0.00053356
Loading maneuver chart data...
Computing Atmospheric mass density...
Loading historical data...
Loading historical data...
Loading historical data...
Loading historical data...
Loading historical data...
Loading historical data...
Loading historical data...

Documentation

Showing up to 5 results
|